Weather History for Troy, AL

Change the Weather History Date:

Wednesday, December 5, 2012

  Actual Average Record
Temperature  
Mean Temperature 61 °F 50 °F  
Max Temperature 76 °F 62 °F 81 °F (2013)
Min Temperature 45 °F 38 °F 22 °F (2006)
Degree Days  
Heating Degree Days 4 15  
Month to date heating degree days 28 72  
Since 1 July heating degree days 496 465  
Growing Degree Days 10 (Base 50)    
Moisture  
Dew Point 48 °F    
Average Humidity 67    
Maximum Humidity 96    
Minimum Humidity 38    
Precipitation  
Precipitation 0.00 in 0.18 in 0.69 in (2004)
Month to date precipitation 0.00 0.86  
Year to date precipitation 51.25 50.64  
Snow  
Snow 0.00 in - - ()
Month to date snowfall 0.0  
Since 1 July snowfall 0.0  
Snow Depth 0.00 in    
Sea Level Pressure  
Sea Level Pressure 30.16 in    
Wind  
Wind Speed 2 mph (SSW)    
Max Wind Speed 13 mph    
Max Gust Speed 23 mph    
Visibility 7 miles    
Events Fog    
T = Trace of Precipitation, MM = Missing Value Source: NWS Daily Summary

Daily Weather History Graph

Daily Weather History Graph

Search for Another Location

Airport:

Trip Planner

Search our weather history database for the weather conditions in past years. The results will help you decide how hot, cold, wet, or windy it might be!

Date:

Astronomy

Dec. 05, 2012 Rise Set
Actual Time 6:30 AM CST 4:39 PM CST
Civil Twilight 6:03 AM CST 5:06 PM CST
Nautical Twilight 5:32 AM CST 5:36 PM CST
Astronomical Twilight 5:03 AM CST 6:06 PM CST
Moon 11:10 PM CST (12/5) 11:09 AM CST (12/5)
Length of Visible Light 11h 03m
Length of Day
10h 09m
Waning Gibbous, 59% of the Moon is Illuminated
Dec 5
Waning Gibbous
Dec 6
Last Quarter
Dec 13
New
Dec 19
First Quarter
Dec 28
Full

Hourly Weather History & Observations

Time (CST) Temp. Dew Point Humidity Pressure Visibility Wind Dir Wind Speed Gust Speed Precip Events Conditions
12:53 AM 52.0 °F 48.9 °F 89% 30.20 in 10.0 mi Calm Calm - N/A   Partly Cloudy
1:53 AM 51.1 °F 48.9 °F 92% 30.19 in 10.0 mi Calm Calm - N/A   Clear
2:53 AM 50.0 °F 48.0 °F 93% 30.18 in 10.0 mi Calm Calm - N/A   Clear
3:53 AM 48.9 °F 46.9 °F 93% 30.18 in 10.0 mi Calm Calm - N/A   Partly Cloudy
4:19 AM 48.2 °F 46.4 °F 93% 30.18 in 10.0 mi Calm Calm - N/A   Mostly Cloudy
4:41 AM 46.4 °F 44.6 °F 93% 30.19 in 9.0 mi Calm Calm - N/A   Mostly Cloudy
4:53 AM 46.9 °F 45.0 °F 93% 30.19 in 9.0 mi Calm Calm - N/A   Overcast
5:12 AM 48.2 °F 46.4 °F 93% 30.19 in 1.5 mi Calm Calm - N/A   Overcast
5:20 AM 48.2 °F 46.4 °F 93% 30.19 in 2.0 mi Calm Calm - N/A   Overcast
5:28 AM 46.4 °F 46.4 °F 100% 30.19 in 1.5 mi Calm Calm - N/A   Overcast
5:36 AM 46.4 °F 44.6 °F 93% 30.19 in 1.2 mi Calm Calm - N/A   Overcast
5:43 AM 46.4 °F 44.6 °F 93% 30.20 in 1.5 mi Calm Calm - N/A   Overcast
5:51 AM 46.4 °F 44.6 °F 93% 30.20 in 2.0 mi Calm Calm - N/A   Overcast
5:53 AM 46.9 °F 45.0 °F 93% 30.19 in 2.0 mi Calm Calm - N/A   Overcast
6:02 AM 46.4 °F 44.6 °F 93% 30.20 in 1.5 mi Calm Calm - N/A   Overcast
6:12 AM 46.4 °F 44.6 °F 93% 30.20 in 3.0 mi Calm Calm - N/A   Overcast
6:17 AM 48.2 °F 46.4 °F 93% 30.20 in 1.8 mi Calm Calm - N/A   Overcast
6:19 AM 48.2 °F 46.4 °F 93% 30.20 in 0.8 mi Calm Calm - N/A   Overcast
6:23 AM 46.4 °F 46.4 °F 100% 30.20 in 0.2 mi Calm Calm - N/A Fog Fog
6:53 AM 46.0 °F 45.0 °F 96% 30.21 in 0.2 mi Calm Calm - N/A Fog Fog
8:53 AM 62.1 °F 55.9 °F 80% 30.23 in 10.0 mi Calm Calm - N/A   Clear
9:53 AM 69.1 °F 55.0 °F 61% 30.22 in 10.0 mi Calm Calm - N/A   Clear
10:53 AM 72.0 °F 52.0 °F 49% 30.19 in 10.0 mi SSW 5.8 mph - N/A   Clear
11:53 AM 73.9 °F 50.0 °F 43% 30.15 in 10.0 mi South 6.9 mph - N/A   Clear
12:53 PM 75.0 °F 48.9 °F 40% 30.11 in 10.0 mi SW 6.9 mph - N/A   Partly Cloudy
1:53 PM 75.0 °F 48.0 °F 38% 30.09 in 10.0 mi Variable 6.9 mph - N/A   Scattered Clouds
2:53 PM 75.0 °F 48.0 °F 38% 30.08 in 10.0 mi SSW 8.1 mph - N/A   Mostly Cloudy
3:53 PM 71.1 °F 48.9 °F 45% 30.09 in 10.0 mi SW 3.5 mph - N/A   Clear
4:53 PM 64.9 °F 52.0 °F 63% 30.09 in 10.0 mi Calm Calm - N/A   Clear
5:53 PM 60.1 °F 51.1 °F 72% 30.10 in 10.0 mi Calm Calm - N/A   Clear
6:53 PM 59.0 °F 52.0 °F 78% 30.11 in 10.0 mi Calm Calm - N/A   Clear
7:53 PM 57.0 °F 51.1 °F 81% 30.11 in 10.0 mi Calm Calm - N/A   Clear
8:53 PM 55.0 °F 51.1 °F 86% 30.11 in 10.0 mi Calm Calm - N/A   Clear
9:53 PM 53.1 °F 48.9 °F 86% 30.11 in 10.0 mi Calm Calm - N/A   Clear
10:53 PM 52.0 °F 48.9 °F 89% 30.10 in 10.0 mi North 4.6 mph - N/A   Scattered Clouds
11:53 PM 50.0 °F 48.0 °F 93% 30.09 in 10.0 mi Calm Calm - N/A   Partly Cloudy